AirNav   ATP
 
 698 users online  

C55 Ogle County Airport
Mount Morris, Illinois, USA

GOING TO MOUNT MORRIS?


FAA INFORMATION EFFECTIVE 06 DECEMBER 2018

Location

FAA Identifier: C55
Lat/Long: 42-02-14.1030N / 089-23-34.3870W
42-02.235050N / 089-23.573117W
42.0372508 / -89.3928853
(estimated)
Elevation: 929 ft. / 283.2 m (surveyed)
Variation: 00E (1985)
From city: 2 miles SE of MOUNT MORRIS, IL
Time zone: UTC -6 (UTC -5 during Daylight Saving Time)
Zip code: 61061

Airport Operations

Airport use: Open to the public
Activation date: 05/1980
Control tower: no
ARTCC: CHICAGO CENTER
FSS: KANKAKEE FLIGHT SERVICE STATION
NOTAMs facility: IKK (NOTAM-D service available)
Attendance: UNATTENDED
Pattern altitude: 1329 ft. MSL
TPA: 400 FT AGL ULTRALIGHTS, 800 FT AGL SNGL ENG.
Wind indicator: yes
Segmented circle: no
Lights: ACTVT NSTD LIRL RY 09/27 - CTAF.
Beacon: white-green (lighted land airport)
ACTVT ROTG BCN - CTAF.

Airport Communications

CTAF: 122.9
WX AWOS-AV at C73 (12 nm S): 118.575 (815-288-2039)
WX AWOS-3 at FEP (15 nm NW): 120.525 (815-233-4472)
WX ASOS at RFD (16 nm NE): PHONE 815-484-6229
WX AWOS-3 at RPJ (16 nm SE): 125.2 (815-562-2955)

Nearby radio navigation aids

VOR radial/distance  VOR name  Freq  Var
PLLr051/7.3POLO VOR/DME111.2003E
RFDr216/14.2ROCKFORD VOR/DME110.8001E
JVLr199/33.8JANESVILLE VOR/DME114.3003E

 
NDB name  Hdg/Dist  Freq  Var  ID
GILMY251/13.927500ERF .-. ..-.

Airport Services

Parking: tiedowns

Runway Information

Runway 9/27

Dimensions: 2640 x 200 ft. / 805 x 61 m
Surface: turf, in good condition
Runway edge lights: non-standard
RWY 09/27 NSTD LIRL DUE TO SPACING; INTENSITY & NON-FRANGIBLE - ORANGE CONES ADJACENT TO LIGHTS.
RUNWAY 9  RUNWAY 27
Latitude: 42-02.234667N42-02.235000N
Longitude: 089-23.889667W089-23.306333W
Elevation: 920.0 ft.920.0 ft.
Traffic pattern: leftleft
Obstructions: 51 ft. trees, 2250 ft. from runway, 100 ft. left of centerline, 44:1 slope to clear
+10 FT CORN MAY BE ON RY ENDS DURING GROWING SEASON.
none

Airport Ownership and Management from official FAA records

Ownership: Privately-owned
Owner: OGLE COUNTY PILOTS INC
PO BOX 61
MT MORRIS, IL 61054
Phone (815) 546-3213
Manager: DOUG SCHILLER
PO BOX 61
MT MORRIS, IL 61054
Phone 815-234-5840
EMAIL ADDRESS: SDOUG667@AOL.COM (ALL LOWER CASE)

Airport Operational Statistics

Aircraft based on the field: 14
Single engine airplanes: 13
Ultralights: 1
    
Aircraft operations: avg 125/week *
92% local general aviation
8% transient general aviation
* for 12-month period ending 31 July 2016

Additional Remarks

RWY 9/27 NOT PLOWED DURING WINTER MONTHS; USE AT OWN RISK

Instrument Procedures

There are no published instrument procedures at C55.

Some nearby airports with instrument procedures:

C73 - Dixon Municipal Airport-Charles R. Walgreen Field (12 nm S)
KFEP - Albertus Airport (15 nm NW)
KRFD - Chicago/Rockford International Airport (16 nm NE)
KRPJ - Rochelle Municipal Airport-Koritz Field (16 nm SE)
KSQI - Whiteside County Airport-Jos H Bittorf Field (22 nm SW)
 
Loc | Ops | Rwys | IFR | FBO | Links
Com | Nav | Svcs | Stats | Notes


 
Area around C55 (Ogle County Airport)
 
Road maps at: MapQuest Bing Google
 
Aerial photo
WARNING: Photo may not be current or correct
Aerial photo of C55 (Ogle County Airport)
Do you have a better or more recent aerial photo of Ogle County Airport that you would like to share? If so, please send us your photo.

 
Sectional chart

 
Airport distance calculator
Flying to Ogle County Airport? Find the distance to fly.

From to C55

Sunrise and sunset
Times for 14-Dec-2018
 Local
(UTC-6)
 Zulu
(UTC)
Morning civil twilight06:4712:47
Sunrise07:1913:19
Sunset16:2622:26
Evening civil twilight16:5722:57

Current date and time
Zulu (UTC)  15-Dec-2018 04:20:39
Local (UTC-6)  14-Dec-2018 22:20:39
 
METAR
KFEP 
15nm NW 
150355Z AUTO 00000KT 1/4SM FZFG OVC002 M05/M05 A3023 RMK AO2 T10511052
KRFD 
16nm NE 
150354Z 00000KT 1/8SM R01/0800V1000FT FZFG VV002 M03/M04 A3024 RMK AO2 SLP248 I1000 T10281039
KRPJ 
17nm SE 
150355Z AUTO 01003KT 1/4SM FZFG OVC002 M03/M03 A3021 RMK AO2 T10301030
KSQI 
21nm SW 
150356Z AUTO 00000KT 1/4SM FZFG OVC001 M03/M03 A3021 RMK AO2 SLP253 T10281033 FZRANO RVRNO
TAF
KRFD 
16nm NE 
142217Z 1422/1518 02005KT 1/4SM FG OVC002 FM150900 04005KT 1/2SM FG OVC003 FM151500 03008KT 6SM BR SCT005 BKN250
NOTAMs
Click for the latest NOTAMs
NOTAMs are issued by the DoD/FAA and will open in a separate window not controlled by AirNav.

 

 
 

Would you like to see your business listed on this page?

 If your business provides an interesting product or service to pilots, flight crews, aircraft, or users of the Ogle County Airport, you should consider listing it here.  To start the listing process, click on the button below
 
Add a business
 

Other Pages about Ogle County Airport

oglecountyairport.com/news.php
 
Update a link
 
Copyright © AirNav, LLC. All rights reserved. Privacy Policy  Contact